Biggs, California, United States (95917)
Lat: 39.41N, Lon: 121.71W
Wx Zone: CAZ016
Local Info
Past Weather Observations for Saturday, August 16, 2014

NOTE: This archive is for the closest National Weather Service station to Biggs. Information may differ from the station used for current weather conditions.

Click here for Long-term Archive

Time Weather Temperature Dewpoint Humidity Pressure Winds Precip Visibility
23:53
Clear
75°F / 24°C 45°F / 7°C 34% 29.95 in
(1014 mb)
E 8.1 mph
(E 13 kph)
- 10SM
22:53
Clear
77°F / 25°C 37°F / 3°C 24% 29.95 in
(1014 mb)
SE 9.2 mph
(SE 15 kph)
- 10SM
21:53
Clear
81°F / 27°C 43°F / 6°C 26% 29.95 in
(1014 mb)
E 8.1 mph
(E 13 kph)
- 10SM
20:53
Clear
81°F / 27°C 46°F / 8°C 30% 29.92 in
(1013 mb)
ESE 5.8 mph
(ESE 9 kph)
- 10SM
19:53
Clear
82°F / 28°C 46°F / 8°C 28% 29.92 in
(1013 mb)
SE 4.6 mph
(SE 7 kph)
- 10SM
18:53
Clear
88°F / 31°C 43°F / 6°C 21% 29.92 in
(1013 mb)
S 6.9 mph
(S 11 kph)
- 10SM
17:53
Clear
95°F / 35°C 43°F / 6°C 16% 29.89 in
(1012 mb)
S 6.9 mph
(S 11 kph)
- 10SM
16:53
Clear
95°F / 35°C 46°F / 8°C 19% 29.92 in
(1013 mb)
Variable 3.5 mph
(Variable 6 kph)
- 10SM
15:53
Clear
97°F / 36°C 45°F / 7°C 17% 29.92 in
(1013 mb)
Variable 3.5 mph
(Variable 6 kph)
- 10SM
14:53
Clear
97°F / 36°C 43°F / 6°C 16% 29.95 in
(1014 mb)
SW 5.8 mph
(SW 9 kph)
- 10SM
13:53
Clear
93°F / 34°C 48°F / 9°C 21% 29.98 in
(1015 mb)
W 5.8 mph
(W 9 kph)
- 10SM
12:53
Clear
93°F / 34°C 46°F / 8°C 20% 29.98 in
(1015 mb)
SSW 3.5 mph
(SSW 6 kph)
- 10SM
11:53
Clear
90°F / 32°C 52°F / 11°C 27% 30.01 in
(1016 mb)
W 4.6 mph
(W 7 kph)
- 10SM
10:53
Clear
88°F / 31°C 52°F / 11°C 29% 30.01 in
(1016 mb)
W 6.9 mph
(W 11 kph)
- 10SM
09:53
Clear
82°F / 28°C 54°F / 12°C 37% 30.01 in
(1016 mb)
Variable 4.6 mph
(Variable 7 kph)
- 10SM
08:53
Clear
81°F / 27°C 48°F / 9°C 32% 30.01 in
(1016 mb)
W 4.6 mph
(W 7 kph)
- 10SM
07:53
Clear
75°F / 24°C 50°F / 10°C 41% 30.04 in
(1017 mb)
W 3.5 mph
(W 6 kph)
- 10SM
06:53
Clear
72°F / 22°C 50°F / 10°C 47% 30.01 in
(1016 mb)
Calm - 10SM
05:53
Clear
66°F / 19°C 48°F / 9°C 52% 30.01 in
(1016 mb)
Calm - 10SM
04:53
Clear
64°F / 18°C 50°F / 10°C 60% 29.98 in
(1015 mb)
NE 4.6 mph
(NE 7 kph)
- 10SM
03:53
Clear
66°F / 19°C 54°F / 12°C 64% 29.98 in
(1015 mb)
W 3.5 mph
(W 6 kph)
- 10SM
02:53
Clear
73°F / 23°C 50°F / 10°C 44% 29.95 in
(1014 mb)
Calm - 10SM
01:53
Clear
73°F / 23°C 48°F / 9°C 41% 29.95 in
(1014 mb)
Calm - 10SM
00:53
Clear
75°F / 24°C 50°F / 10°C 41% 29.95 in
(1014 mb)
E 4.6 mph
(E 7 kph)
- 10SM
Time Weather Temperature Dewpoint Humidity Pressure Winds Precip Visibility


Weather for websites

WeatherForYou.com, LLC is not responsible for any damages or problems caused by this service. Current weather conditions are obtained from the closest station including government and personal stations which may have varying degrees of accuracy. Weather forecasts are derived from the NOAA NDFD. Like all things, this site belongs to Jesus Christ... He just trusts me to maintain it. If you have any questions or comments email webmaster@weatherforyou.com

Copyright © 2014, WeatherForYou.com LLC. All rights reserved.